This demonstration page uses our WeatherBlox Daily Observations layout. Learn more.

Left ArrowRight Arrow

30.21309, -93.2044

Hourly Observations for February 7, 2022

Temp ( °F °C ) Dew Point ( °F °C ) Humidity (%) Winds ( mph kmh ) Pressure ( in mb ) Visibility ( mi km ) Precip ( " mm )
12:15 am 00:15 Clear 40 4.3 33 0.3 75 75 NNW 5 7 30.27 1025 10 16 0.00 0.00
12:35 am 00:35 Clear 39 3.9 32 0 76 76 NNW 5 7 30.26 1025 10 16 0.00 0.00
12:55 am 00:55 Clear 40 4.7 32 0.1 72 72 NW 3 6 30.28 1025 10 16 0.00 0.00
1:15 am 01:15 Clear 41 4.8 32 0.1 72 72 N 3 6 30.27 1025 10 16 0.00 0.00
1:35 am 01:35 Clear 41 4.8 32 0.1 72 72 NW 3 6 30.27 1025 10 16 0.00 0.00
1:55 am 01:55 Clear 40 4.2 34 1.3 82 82 NW 6 9 30.26 1025 10 16 0.00 0.00
2:15 am 02:15 Clear 40 4.6 34 1.2 79 79 Calm 30.27 1025 10 16 0.00 0.00
2:35 am 02:35 Clear 42 5.5 33 0.3 69 69 NNW 3 6 30.28 1025 10 16 0.00 0.00
2:55 am 02:55 Clear 42 5.4 33 0.3 70 70 Calm 30.29 1026 10 16 0.00 0.00
3:15 am 03:15 Clear 40 4.7 33 0.7 76 76 Calm 30.27 1025 10 16 0.00 0.00
3:35 am 03:35 Clear 40 4.3 34 1.1 80 80 Calm 30.28 1025 10 16 0.00 0.00
3:55 am 03:55 Clear 43 5.9 33 0.7 70 70 NW 3 6 30.29 1026 10 16 0.00 0.00
4:15 am 04:15 Clear 42 5.6 34 1 73 73 NNW 3 6 30.28 1025 10 16 0.00 0.00
4:35 am 04:35 Clear 42 5.7 33 0.8 71 71 NNW 3 6 30.28 1025 10 16 0.00 0.00
4:55 am 04:55 Clear 42 5.4 34 1 74 74 N 3 6 30.28 1025 10 16 0.00 0.00
5:15 am 05:15 Clear 42 5.6 34 1.1 73 73 N 3 6 30.28 1025 10 16 0.00 0.00
5:35 am 05:35 Clear 43 6.2 33 0.8 69 69 NNE 3 6 30.28 1025 10 16 0.00 0.00
6:00 am 06:00 Mostly Clear 43 6 34 1 71 71 Calm 30.28 1025 10 16 0.00 0.00
6:55 am 06:55 Mostly Clear 43 6 32 0 66 66 Calm 30.29 1026 10 16 0.00 0.00
7:55 am 07:55 Mostly Sunny 43 6 32 0 66 66 Calm 30.32 1027 10 16 0.00 0.00
8:50 am 08:50 Mostly Sunny 45 7 30 -1 57 57 Calm 30.34 1027 10 16 0.00 0.00
9:45 am 09:45 Partly Cloudy 48 9 30 -1 50 50 NW 7 11 30.38 1029 7 11 0.00 0.00
10:45 am 10:45 Mostly Sunny 55 13 28 -2 36 36 N 8 13 30.35 1028 10 16 0.00 0.00
11:48 am 11:48 Mostly Sunny 57 14 25 -4 29 29 NNE 9 15 30.32 1027 10 16 0.00 0.00
12:55 pm 12:55 Mostly Sunny 57 14 27 -3 31 31 NE 12 19 30.28 1025 10 16 0.00 0.00
1:51 pm 13:51 Mostly Sunny 59 15 25 -4 27 27 N 12 19 30.26 1025 10 16 0.00 0.00
2:50 pm 14:50 Mostly Sunny 61 16 25 -4 25 25 N 12 19 30.23 1024 10 16 0.00 0.00
2:55 pm 14:55 Mostly Sunny 61 16 25 -4 25 25 N 12 19 30.23 1024 10 16 0.00 0.00
3:49 pm 15:49 Partly Cloudy 61 16 27 -3 27 27 NNE 12 19 30.22 1023 10 16 0.00 0.00
4:56 pm 16:56 Mostly Sunny 61 16 28 -2 29 29 N 13 20 30.23 1024 10 16 0.00 0.00
5:50 pm 17:50 Mostly Sunny 57 14 28 -2 33 33 NNW 9 15 30.25 1024 10 16 0.00 0.00
6:50 pm 18:50 Mostly Clear 54 12 28 -2 38 38 N 6 9 30.27 1025 10 16 0.00 0.00
7:55 pm 19:55 Mostly Clear 52 11 28 -2 41 41 Calm 30.28 1025 10 16 0.00 0.00
8:45 pm 20:45 Mostly Clear 48 9 28 -2 46 46 Calm 30.29 1026 10 16 0.00 0.00
9:45 pm 21:45 Mostly Clear 46 8 30 -1 53 53 Calm 30.31 1026 10 16 0.00 0.00
10:15 pm 22:15 Clear 45 7.2 31 -0.4 59 59 NNW 3 6 30.30 1026 10 16 0.00 0.00
10:35 pm 22:35 Clear 43 6.2 32 0 65 65 NW 3 6 30.30 1026 10 16 0.00 0.00
10:55 pm 22:55 Clear 43 6.3 32 0.1 65 65 N 5 7 30.30 1026 10 16 0.00 0.00
11:15 pm 23:15 Clear 42 5.6 32 0 68 68 NNW 6 9 30.30 1026 10 16 0.00 0.00
11:35 pm 23:35 Clear 44 6.6 31 -0.5 61 61 N 6 9 30.30 1026 10 16 0.00 0.00
11:55 pm 23:55 Clear 45 7.1 31 -0.7 58 58 N 7 11 30.29 1026 10 16 0.00 0.00

Powered by AerisWeather